TimeCDT,TemperatureF,Dew PointF,Humidity,Sea Level PressureIn,VisibilityMPH,Wind Direction,Wind SpeedMPH,Gust SpeedMPH,PrecipitationIn,Events,Conditions,WindDirDegrees,DateUTC
12:56 AM,57.9,50.0,75,29.81,10.0,Calm,Calm,-,N/A,,Clear,0,2013-10-01 05:56:00
1:56 AM,62.1,54.0,75,29.81,10.0,SW,4.6,-,N/A,,Clear,230,2013-10-01 06:56:00
2:56 AM,62.1,55.0,78,29.81,10.0,Variable,4.6,-,N/A,,Clear,0,2013-10-01 07:56:00
3:56 AM,61.0,55.9,83,29.80,10.0,Calm,Calm,-,N/A,,Clear,0,2013-10-01 08:56:00
4:56 AM,61.0,57.0,87,29.80,10.0,Calm,Calm,-,N/A,,Clear,0,2013-10-01 09:56:00
5:56 AM,61.0,57.9,90,29.81,10.0,SW,4.6,-,N/A,,Clear,230,2013-10-01 10:56:00
6:56 AM,61.0,57.9,90,29.81,10.0,South,5.8,-,N/A,,Clear,180,2013-10-01 11:56:00
7:56 AM,62.1,57.9,86,29.83,10.0,Calm,Calm,-,N/A,,Clear,0,2013-10-01 12:56:00
8:56 AM,66.0,59.0,78,29.83,10.0,Variable,3.5,-,N/A,,Clear,0,2013-10-01 13:56:00
9:56 AM,69.1,59.0,70,29.83,10.0,SW,8.1,-,N/A,,Clear,220,2013-10-01 14:56:00
10:56 AM,72.0,59.0,64,29.83,10.0,SW,11.5,-,N/A,,Clear,220,2013-10-01 15:56:00
11:56 AM,75.0,59.0,57,29.83,10.0,SW,12.7,-,N/A,,Clear,230,2013-10-01 16:56:00
12:56 PM,75.9,59.0,56,29.84,10.0,SW,13.8,-,N/A,,Clear,220,2013-10-01 17:56:00
1:56 PM,78.1,59.0,52,29.83,10.0,WSW,10.4,-,N/A,,Clear,240,2013-10-01 18:56:00
2:56 PM,79.0,60.1,52,29.83,10.0,West,10.4,16.1,N/A,,Clear,260,2013-10-01 19:56:00
3:56 PM,79.0,57.9,48,29.84,10.0,West,10.4,-,N/A,,Clear,260,2013-10-01 20:56:00
4:56 PM,79.0,59.0,50,29.85,10.0,WSW,6.9,-,N/A,,Clear,250,2013-10-01 21:56:00
5:56 PM,78.1,55.9,46,29.87,10.0,WNW,8.1,-,N/A,,Clear,290,2013-10-01 22:56:00
6:56 PM,72.0,57.9,61,29.88,10.0,Calm,Calm,-,N/A,,Clear,0,2013-10-01 23:56:00
7:56 PM,63.0,55.9,78,29.91,10.0,Calm,Calm,-,N/A,,Clear,0,2013-10-02 00:56:00
8:56 PM,61.0,57.0,87,29.92,10.0,Calm,Calm,-,N/A,,Clear,0,2013-10-02 01:56:00
9:56 PM,57.9,55.9,93,29.94,10.0,West,4.6,-,N/A,,Clear,260,2013-10-02 02:56:00
10:56 PM,57.0,55.9,96,29.96,10.0,West,5.8,-,N/A,,Clear,280,2013-10-02 03:56:00
11:36 PM,51.8,51.8,100,29.99,1.8,Calm,Calm,-,N/A,,Clear,0,2013-10-02 04:36:00
11:48 PM,53.6,51.8,94,29.99,3.0,Calm,Calm,-,N/A,,Clear,0,2013-10-02 04:48:00
11:51 PM,51.8,51.8,100,29.99,1.5,Calm,Calm,-,N/A,,Partly Cloudy,0,2013-10-02 04:51:00
11:53 PM,51.8,51.8,100,29.99,0.8,Calm,Calm,-,N/A,,Mist,0,2013-10-02 04:53:00
11:56 PM,52.0,51.1,97,29.97,0.5,Calm,Calm,-,N/A,Fog,Fog,0,2013-10-02 04:56:00